• In Belarus
  • List of Countries
  • For 7 days
  • Water Temperature
  • Satellite Maps
  • Weather Map
  • Weather Widgets
  • user-avatar
    Login

    Hourly Weather Sitkovo

    Today, 14 November, Wednesday

    Time Temperature Precipitation Wind Pressure Humidity
    00:00 -4°C° 0.4 mm 6 mps 752 mmHg 62%
    01:00 -4°C° 0.4 mm 6 mps 752 mmHg 66%
    02:00 -4°C° 0 mm 5 mps 751 mmHg 68%
    03:00 -4°C° 0.5 mm 5 mps 751 mmHg 71%
    04:00 -4°C° 0.5 mm 5 mps 750 mmHg 73%
    05:00 -4°C° 0.5 mm 5 mps 750 mmHg 76%
    06:00 -5°C° 0.7 mm 5 mps 750 mmHg 79%
    07:00 -5°C° 0.7 mm 5 mps 749 mmHg 83%
    08:00 -5°C° 0 mm 5 mps 749 mmHg 87%
    09:00 -4°C° 0.8 mm 4 mps 749 mmHg 87%
    10:00 -4°C° 0.8 mm 4 mps 749 mmHg 88%
    11:00 -4°C° 0.8 mm 4 mps 750 mmHg 88%
    12:00 -4°C° 0.4 mm 3 mps 750 mmHg 88%
    13:00 -4°C° 0.4 mm 3 mps 750 mmHg 87%
    14:00 -4°C° 0 mm 3 mps 750 mmHg 87%
    15:00 -4°C° 0.2 mm 3 mps 750 mmHg 87%
    16:00 -3°C° 0.2 mm 2 mps 750 mmHg 88%
    17:00 -3°C° 0.2 mm 2 mps 750 mmHg 88%
    18:00 -3°C° 0.1 mm 2 mps 751 mmHg 89%
    19:00 -3°C° 0.1 mm 2 mps 751 mmHg 89%
    20:00 -1°C° 0.1 mm 1 mps 751 mmHg 89%
    21:00 -1°C° 0 mm 1 mps 751 mmHg 90%
    22:00 -1°C° 0 mm 1 mps 752 mmHg 91%
    23:00 -1°C° 0 mm 1 mps 752 mmHg 92%

    Tomorrow, 15 November, Thursday

    Time Temperature Precipitation Wind Pressure Humidity
    00:00 -2°C° 0 mm 1 mps 752 mmHg 92%
    01:00 -2°C° 0 mm 1 mps 753 mmHg 93%
    02:00 -2°C° 0 mm 1 mps 753 mmHg 93%
    03:00 -2°C° 0 mm 1 mps 754 mmHg 93%
    04:00 -2°C° 0 mm 1 mps 754 mmHg 93%
    05:00 -1°C° 0 mm 1 mps 755 mmHg 93%
    06:00 -1°C° 0 mm 1 mps 755 mmHg 93%
    07:00 -1°C° 0 mm 1 mps 756 mmHg 93%
    08:00 -1°C° 0 mm 1 mps 756 mmHg 94%
    09:00 -1°C° 0 mm 1 mps 757 mmHg 91%
    10:00 0°C° 0 mm 1 mps 757 mmHg 89%
    11:00 +1°C° 0 mm 1 mps 758 mmHg 87%
    12:00 +1°C° 0 mm 1 mps 758 mmHg 87%
    13:00 +2°C° 0 mm 1 mps 759 mmHg 88%
    14:00 +2°C° 0 mm 1 mps 759 mmHg 89%
    15:00 +2°C° 0 mm 1 mps 759 mmHg 90%
    16:00 +1°C° 0 mm 1 mps 760 mmHg 92%
    17:00 +1°C° 0 mm 1 mps 760 mmHg 93%
    18:00 +1°C° 0 mm 1 mps 761 mmHg 93%
    19:00 +1°C° 0 mm 1 mps 761 mmHg 93%
    20:00 +1°C° 0 mm 1 mps 762 mmHg 93%
    21:00 +1°C° 0 mm 1 mps 762 mmHg 93%
    22:00 +1°C° 0 mm 1 mps 762 mmHg 93%
    23:00 +1°C° 0 mm 1 mps 763 mmHg 93%

    Day after tomorrow, 16 November, Friday

    Time Temperature Precipitation Wind Pressure Humidity
    00:00 0°C° 0 mm 1 mps 763 mmHg 93%
    01:00 0°C° 0 mm 1 mps 763 mmHg 93%
    02:00 0°C° 0 mm 1 mps 764 mmHg 93%
    03:00 0°C° 0 mm 1 mps 764 mmHg 93%
    04:00 0°C° 0 mm 1 mps 764 mmHg 93%
    05:00 0°C° 0 mm 1 mps 764 mmHg 93%
    06:00 -1°C° 0 mm 1 mps 765 mmHg 93%
    07:00 -1°C° 0 mm 1 mps 765 mmHg 93%
    08:00 -1°C° 0 mm 1 mps 765 mmHg 93%
    09:00 0°C° 0 mm 1 mps 765 mmHg 89%
    10:00 +1°C° 0 mm 1 mps 766 mmHg 86%
    11:00 +2°C° 0 mm 1 mps 766 mmHg 83%
    12:00 +1°C° 0 mm 0 mps 766 mmHg 83%
    13:00 +1°C° 0 mm 0 mps 766 mmHg 83%
    14:00 +1°C° 0 mm 0 mps 766 mmHg 84%
    15:00 0°C° 0 mm 0 mps 766 mmHg 85%
    16:00 -1°C° 0 mm 0 mps 766 mmHg 87%
    17:00 -2°C° 0 mm 0 mps 766 mmHg 88%
    18:00 -2°C° 0 mm 0 mps 766 mmHg 88%
    19:00 -1°C° 0 mm 1 mps 766 mmHg 87%
    20:00 -1°C° 0 mm 1 mps 766 mmHg 87%
    21:00 -1°C° 0 mm 1 mps 766 mmHg 86%
    22:00 -2°C° 0 mm 1 mps 766 mmHg 86%
    23:00 -2°C° 0 mm 1 mps 766 mmHg 85%

    17 November, Saturday

    Time Temperature Precipitation Wind Pressure Humidity
    00:00 -2°C° 0 mm 1 mps 766 mmHg 85%
    01:00 -2°C° 0 mm 1 mps 766 mmHg 84%
    02:00 -2°C° 0 mm 1 mps 766 mmHg 84%
    03:00 -2°C° 0 mm 1 mps 766 mmHg 84%
    04:00 -2°C° 0 mm 1 mps 765 mmHg 84%
    05:00 -2°C° 0 mm 1 mps 765 mmHg 84%
    06:00 -2°C° 0 mm 1 mps 765 mmHg 85%
    07:00 -2°C° 0 mm 1 mps 765 mmHg 85%
    08:00 -2°C° 0 mm 1 mps 765 mmHg 86%
    09:00 -3°C° 0 mm 2 mps 764 mmHg 84%
    10:00 -2°C° 0 mm 2 mps 763 mmHg 82%
    11:00 -1°C° 0 mm 2 mps 763 mmHg 80%
    12:00 -1°C° 0 mm 2 mps 762 mmHg 81%
    13:00 -1°C° 0 mm 3 mps 762 mmHg 83%
    14:00 0°C° 0 mm 3 mps 761 mmHg 85%
    15:00 0°C° 0 mm 3 mps 761 mmHg 87%
    16:00 -1°C° 0 mm 3 mps 760 mmHg 90%
    17:00 -1°C° 0 mm 3 mps 759 mmHg 92%
    18:00 0°C° 0 mm 3 mps 759 mmHg 93%
    19:00 0°C° 0 mm 3 mps 758 mmHg 93%
    20:00 0°C° 0 mm 3 mps 757 mmHg 94%
    21:00 0°C° 0 mm 3 mps 757 mmHg 94%
    22:00 0°C° 0 mm 3 mps 756 mmHg 95%
    23:00 0°C° 0 mm 3 mps 756 mmHg 95%

    18 November, Sunday

    Time Temperature Precipitation Wind Pressure Humidity
    00:00 0°C° 0.1 mm 3 mps 755 mmHg 95%
    01:00 +1°C° 0.1 mm 3 mps 754 mmHg 95%
    02:00 +1°C° 0.1 mm 3 mps 754 mmHg 96%
    03:00 +1°C° 0.1 mm 3 mps 753 mmHg 96%
    04:00 +1°C° 0.1 mm 3 mps 752 mmHg 95%
    05:00 +1°C° 0.1 mm 3 mps 751 mmHg 95%
    06:00 0°C° 0.1 mm 4 mps 751 mmHg 94%
    07:00 0°C° 0.1 mm 4 mps 751 mmHg 94%
    08:00 0°C° 0.1 mm 4 mps 750 mmHg 93%
    09:00 0°C° 0.1 mm 4 mps 750 mmHg 91%
    10:00 0°C° 0.1 mm 4 mps 750 mmHg 90%
    11:00 0°C° 0.1 mm 4 mps 750 mmHg 89%
    12:00 0°C° 0.1 mm 4 mps 750 mmHg 88%
    13:00 0°C° 0.1 mm 4 mps 750 mmHg 88%
    14:00 0°C° 0.1 mm 4 mps 749 mmHg 87%
    15:00 0°C° 0.1 mm 4 mps 749 mmHg 88%
    16:00 0°C° 0.1 mm 4 mps 749 mmHg 89%
    17:00 0°C° 0.1 mm 4 mps 749 mmHg 90%
    18:00 0°C° 0.3 mm 4 mps 749 mmHg 89%
    19:00 0°C° 0.3 mm 4 mps 749 mmHg 89%
    20:00 +1°C° 0.3 mm 5 mps 749 mmHg 88%
    21:00 +1°C° 0.2 mm 5 mps 749 mmHg 88%
    22:00 +1°C° 0.2 mm 5 mps 749 mmHg 88%
    23:00 0°C° 0.2 mm 5 mps 749 mmHg 87%

    19 November, Monday

    Time Temperature Precipitation Wind Pressure Humidity
    00:00 0°C° 0.1 mm 5 mps 750 mmHg 87%
    01:00 0°C° 0.1 mm 5 mps 750 mmHg 87%
    02:00 0°C° 0.1 mm 5 mps 750 mmHg 87%
    03:00 0°C° 0.1 mm 5 mps 751 mmHg 87%
    04:00 0°C° 0.1 mm 5 mps 751 mmHg 87%
    05:00 -1°C° 0.1 mm 5 mps 751 mmHg 87%
    06:00 -1°C° 0.1 mm 5 mps 751 mmHg 87%
    07:00 -1°C° 0.1 mm 4 mps 751 mmHg 86%
    08:00 -1°C° 0.1 mm 4 mps 752 mmHg 86%
    09:00 -1°C° 0.1 mm 4 mps 752 mmHg 85%
    10:00 -1°C° 0.1 mm 4 mps 752 mmHg 85%
    11:00 0°C° 0.1 mm 4 mps 753 mmHg 84%
    12:00 0°C° 0.1 mm 4 mps 753 mmHg 83%
    13:00 0°C° 0.1 mm 4 mps 753 mmHg 82%
    14:00 -1°C° 0.1 mm 4 mps 753 mmHg 82%
    15:00 -1°C° 0 mm 4 mps 754 mmHg 83%
    16:00 -1°C° 0 mm 4 mps 754 mmHg 84%
    17:00 -1°C° 0 mm 3 mps 754 mmHg 85%
    18:00 -1°C° 0 mm 3 mps 754 mmHg 86%
    19:00 -2°C° 0 mm 3 mps 755 mmHg 86%
    20:00 -2°C° 0 mm 3 mps 755 mmHg 87%
    21:00 -2°C° 0 mm 3 mps 755 mmHg 88%
    22:00 -4°C° 0 mm 3 mps 755 mmHg 88%
    23:00 -4°C° 0 mm 3 mps 755 mmHg 89%
    Show more